Regional Weather Roundup
Issued by NWS Goodland, KS

Home | Current Version | Previous Version | Graphics & Text | Print | Product List | Glossary On
Versions: 1 2 3 4 5 6 7 8 9 10 11 12 13 14 15 16 17 18 19 20 21 22 23 24 25 26 27 28 29 30 31 32 33 34 35 36 37 38 39 40 41 42 43 44 45 46 47 48 49 50
000
ASUS43 KGLD 271959
RWRGLD

GOODLAND FORECAST AREA HOURLY WEATHER ROUNDUP
NATIONAL WEATHER SERVICE GOODLAND KS
200 PM MDT TUE SEP 27 2016

...OFFICIAL OBSERVATIONS...

CITY           SKY/WX    TMP DP  RH WIND       PRES   REMARKS
GOODLAND KS    SUNNY     83  36  18 W9        30.07F
HILL CITY KS   SUNNY     83  51  33 W9        30.01F
IMPERIAL NEB   SUNNY     83  37  19 W8G18     30.05F
MCCOOK NEB     SUNNY     84  43  23 W14       30.01F
AKRON CO       SUNNY     78  32  18 VRB5      30.13F
BURLINGTON CO  SUNNY     82  32  16 W7        30.11F
LIMON CO       SUNNY     82  27  13 S10       30.16F
$$

...UNOFFICIAL OBSERVATIONS...

CITY           SKY/WX    TMP DP  RH WIND       PRES   REMARKS
COLBY KS       SUNNY     86  45  23 SW5       30.06F
LENORA KS        N/A     80  32  17 MISG        N/A
NORTON KS      SUNNY     82  34  17 W10G17    30.00F
SHARON SPRINGS   N/A     85  41  20 CALM        N/A
KIT CARSON CO    N/A     81  38  21 CALM        N/A
$$



USA.gov is the U.S. government's official web portal to all federal, state and local government web resources and services.